Temperature
17 17 17 17 17 17 17 18 18 18 18 18 18 18 18 18 18 18 18 18 18 18 18 18 18 17 18 18 18 18 18 18 18 18 18 18 18 18 18 18 18 18 18
17 17 17 17 17 17 17 17 17 18 18 18 18 18 18 18 18 18 18 18 18 17 17 17 17 17 17 17 17 17 17 17 17 17 17 17 17 17 17 17 18 18 18
17 17 17 17 17 17 17 17 17 17 18 18 18 18 17 17 18 17 17 17 17 17 17 17 17 17 17 17 17 17 17 17 17 17 17 17 17 17 17 17 17 17 17
17 17 17 17 17 17 17 17 17 17 17 17 17 17 17 17 17 17 17 17 17 17 17 17 17 17 17 17 17 17 17 17 17 17 17 17 17 17 17 17 17 17 17
17 17 17 17 17 17 17 17 17 17 17 17 17 17 17 17 17 17 17 17 17 17 17 17 17 17 17 17 17 17 17 17 17 17 17 17 17 17 17 17 17 17 17
17 17 17 17 17 17 17 17 17 17 17 17 17 17 17 17 17 17 17 17 17 17 17 17 17 17 17 17 17 17 17 17 17 17 17 17 17 17 17 17 17 17 17
17 17 17 17 17 17 17 17 17 17 17 17 17 17 17 17 17 17 17 17 17 17 17 17 17 17 16 17 17 17 17 17 17 17 17 17 17 17 17 17 17 17 17
17 17 17 17 17 17 17 17 16 17 17 17 17 17 17 17 17 17 17 16 16 16 16 16 16 16 16 16 16 16 17 16 17 17 16 16 16 16 16 16 16 16 16
17 17 17 16 16 16 16 16 16 16 16 16 16 16 16 16 16 16 16 16 16 16 16 16 16 16 16 16 16 16 16 16 16 16 16 16 16 16 16 16 16 16 16
17 17 16 16 16 16 16 16 16 16 16 16 16 16 16 16 16 16 16 16 16 16 16 16 16 16 16 16 16 16 16 16 16 16 16 16 16 16 16 16 16 16 16
16 16 16 16 16 16 16 16 16 16 16 16 16 16 16 16 16 16 16 16 16 16 16 16 16 16 16 16 16 16 16 16 16 16 16 16 16 16 16 16 16 16 16
17 16 16 16 16 16 16 16 16 16 16 16 16 16 16 16 16 16 16 16 16 16 16 16 16 16 16 16 16 16 15 15 15 15 15 15 15 15 16 16 15 16 16
17 16 16 16 16 16 16 16 16 16 16 16 15 15 16 16 16 15 16 15 15 16 15 15 15 15 15 15 15 15 15 15 15 15 15 15 15 15 15 15 15 15 15
17 16 16 16 16 16 16 16 16 16 16 15 15 15 15 15 15 15 15 15 15 15 15 15 15 15 15 15 15 15 15 15 15 15 15 15 15 15 15 15 15 15 15
17 16 16 16 16 16 16 16 16 16 15 15 15 15 15 15 15 15 15 15 15 15 15 15 15 15 15 15 15 15 15 15 15 15 15 15 15 15 15 15 15 15 15
17 16 16 16 16 16 16 15 15 15 15 15 15 15 15 15 15 15 15 15 15 15 15 15 15 15 15 15 15 14 14 14 15 14 14 14 14 14 14 14 14 14 14
17 16 16 16 16 16 16 15 15 15 15 15 15 15 15 15 15 15 15 15 15 15 14 14 14 14 14 14 14 14 14 14 14 14 14 14 14 14 14 14 14 14 14
17 16 16 16 16 16 15 15 15 15 15 15 15 15 15 15 15 14 15 14 14 14 14 14 14 14 14 14 14 14 14 14 14 14 14 14 14 14 14 14 14 14 14
17 17 16 16 16 16 15 15 15 15 15 15 15 14 14 14 14 14 14 14 14 14 14 14 14 14 14 14 14 14 14 14 14 14 14 14 14 13 13 13 14 13 13
17 17 16 16 16 16 15 15 15 15 15 15 14 14 14 14 14 14 14 14 14 14 14 14 14 14 14 14 14 14 14 14 14 14 13 13 13 13 13 13 13 13 13
17 16 16 16 16 15 15 15 15 15 15 14 14 14 14 14 14 14 14 14 14 14 14 14 14 14 13 13 13 13 13 13 13 13 13 13 13 13 13 13 13 13 13
17 17 16 16 16 16 15 15 15 15 15 14 14 14 14 14 14 14 14 14 13 13 13 13 13 13 13 13 13 13 13 13 13 13 13 13 13 13 13 13 13 13 13
17 17 16 16 16 15 15 15 15 15 14 14 14 14 14 14 14 14 13 13 13 13 13 13 13 13 13 13 13 13 13 13 12 13 13 13 13 13 13 13 13 13 13
17 16 16 16 16 15 15 15 15 15 14 14 14 14 13 13 13 13 13 13 13 13 13 13 12 12 12 12 12 13 13 12 12 12 12 12 12 12 12 12 12 12 12
17 16 16 16 15 15 15 15 15 14 14 14 14 14 13 13 13 13 13 13 12 12 12 12 12 12 12 12 12 12 12 12 12 12 12 12 12 12 12 12 12 12 12
17 16 16 16 15 15 15 14 14 14 14 14 14 13 13 13 13 13 13 12 12 12 12 12 12 12 12 12 12 12 12 12 12 12 12 12 12 12 12 12 12 12 12
Wind_Speed
1 2 1 4 6 8 8 9 10 10 9 10 10 10 11 11 10 10 10 10 9 9 9 9 9 10 10 10 10 9 9 8 8 8 8 7 7 7 7 7 6 5 6
2 1 3 5 7 7 8 9 10 9 10 10 10 10 10 11 10 10 10 10 9 9 10 9 9 10 10 10 9 9 9 9 8 8 8 8 7 6 6 6 6 5 6
3 3 4 6 7 8 8 9 9 9 10 10 10 10 10 11 11 10 10 10 9 9 10 10 10 10 9 9 9 8 9 9 9 9 8 7 6 6 6 6 6 6 5
4 4 4 6 8 8 9 9 9 10 10 10 10 10 10 11 11 10 10 9 9 9 10 10 10 10 9 9 9 9 9 9 9 8 7 6 5 5 6 5 5 5 5
4 4 5 7 8 8 9 10 10 10 10 10 10 11 11 10 10 10 9 9 9 8 9 9 9 9 9 9 9 9 10 9 9 8 6 6 5 5 5 5 5 5 6
4 5 5 7 8 8 9 10 10 10 10 11 11 11 11 10 10 9 8 8 8 8 8 8 8 9 9 9 9 9 9 9 9 7 6 6 5 6 6 6 6 6 6
4 5 6 8 8 8 9 10 10 10 10 11 11 10 10 9 9 9 8 7 7 8 7 7 8 8 8 9 9 9 9 9 8 7 6 6 6 7 6 6 5 6 5
5 5 5 7 8 8 8 9 10 10 10 10 10 10 10 9 9 8 7 7 7 7 6 7 8 8 8 9 9 9 9 8 8 7 6 6 7 7 7 7 7 7 7
5 5 5 6 6 7 8 9 9 9 9 9 10 9 9 9 9 8 7 7 6 6 6 6 7 8 8 8 9 10 10 9 8 6 6 5 7 7 7 7 7 7 8
5 5 5 6 6 6 6 7 8 8 8 9 9 9 9 9 9 8 8 7 6 6 6 6 8 8 8 9 10 10 9 8 7 7 6 6 6 7 7 7 8 8 8
3 3 3 4 5 5 5 6 7 7 7 8 8 9 9 8 8 8 8 8 8 7 7 8 9 9 10 9 10 10 9 7 6 6 6 7 8 8 8 9 8 8 9
2 2 2 3 3 4 4 6 6 6 7 7 7 8 8 7 7 7 8 9 10 9 9 10 9 9 8 8 8 8 6 7 6 5 6 8 9 10 10 10 9 9 9
3 2 2 2 3 3 3 4 4 5 6 6 7 7 7 7 7 7 7 8 8 9 8 9 9 8 7 6 6 6 6 5 5 5 6 9 10 10 11 10 10 10 10
3 2 2 2 3 3 3 3 3 3 4 4 5 5 5 4 4 4 4 5 6 6 6 6 5 6 6 6 6 5 5 5 5 5 7 8 9 9 10 10 10 10 10
4 3 3 3 3 3 3 2 3 2 3 3 4 4 4 3 3 3 4 4 5 5 4 4 4 5 5 5 5 5 4 4 5 5 6 8 8 8 9 9 9 9 9
4 3 3 3 3 3 3 2 2 3 3 4 3 4 4 4 3 3 3 4 4 4 5 4 4 4 4 4 4 4 4 4 5 5 6 6 8 9 8 9 8 8 8
5 4 4 4 3 4 3 2 3 3 4 3 3 4 4 4 4 3 3 3 3 4 5 5 5 5 4 4 4 4 3 4 4 4 5 5 6 8 8 8 8 8 7
5 5 4 4 4 4 3 3 3 3 4 3 3 3 4 4 5 4 3 2 3 4 4 3 3 4 4 4 3 3 3 3 4 4 4 5 6 6 7 8 7 7 7
5 5 5 4 5 4 4 3 4 4 4 3 4 3 3 4 5 5 3 3 4 4 3 3 3 3 3 3 3 4 4 3 3 4 4 5 5 5 5 6 7 7 7
5 5 5 4 4 4 4 3 3 4 3 4 3 3 4 4 5 5 4 4 4 3 3 3 3 4 3 2 3 4 4 3 3 3 3 4 5 5 6 6 6 6 7
5 5 5 5 4 4 3 3 3 2 1 2 2 3 4 4 5 5 4 3 3 3 3 3 3 4 3 2 3 3 4 4 4 4 3 3 4 5 6 6 5 5 5
6 6 6 6 6 5 4 3 2 2 2 1 2 3 3 4 4 4 4 3 3 3 4 3 3 2 2 3 2 2 3 4 4 4 3 3 3 4 4 5 5 5 5
6 6 7 6 6 6 4 4 3 3 3 2 1 1 1 3 3 3 3 3 3 3 2 2 2 2 1 2 2 2 2 1 2 3 3 3 4 3 3 4 5 5 5
7 6 6 7 6 5 6 5 5 4 3 2 2 1 1 2 3 3 3 3 2 2 2 1 2 1 2 1 2 2 1 2 1 2 3 3 4 3 3 3 4 5 4
6 6 6 6 5 5 5 6 5 3 3 2 2 2 1 1 1 2 3 3 2 2 2 2 2 2 1 2 1 1 2 2 2 2 1 3 3 3 3 3 3 4 5
5 5 6 6 5 5 5 5 5 5 4 4 3 2 1 1 1 1 2 2 2 2 2 2 2 2 2 2 1 1 1 1 1 2 1 1 2 3 3 3 2 3 4
Wind_Direction
258 275 106 92 87 86 84 84 82 83 85 87 91 95 96 99 102 103 103 102 98 98 97 95 95 96 92 90 89 87 87 87 86 86 85 89 97 99 99 96 96 94 97
168 163 119 102 97 93 87 85 83 82 84 88 91 94 96 97 99 101 102 100 99 98 99 98 95 93 90 89 88 87 86 85 85 82 77 73 80 87 90 96 95 96 97
113 119 120 109 101 97 91 87 85 87 87 88 91 93 96 96 96 98 100 100 99 98 96 96 94 91 88 88 87 86 88 87 82 78 69 61 66 77 79 89 93 92 91
108 107 114 109 99 95 91 88 86 86 87 87 90 93 94 94 95 95 94 95 96 97 96 95 93 90 87 87 89 88 88 86 82 77 64 56 57 76 77 83 88 89 90
87 91 106 104 99 95 95 92 88 85 83 86 89 90 90 92 94 93 91 90 91 94 95 92 91 89 88 87 90 89 87 83 78 70 62 54 52 70 75 78 83 85 85
81 81 100 101 99 95 95 93 90 87 84 84 87 89 89 88 89 89 88 88 88 91 97 97 95 90 88 89 90 87 85 81 72 64 59 53 53 64 73 78 78 78 80
90 81 94 101 97 94 94 93 91 88 85 82 83 84 86 87 86 84 84 83 82 87 93 97 94 88 86 85 86 85 83 78 70 62 56 52 54 61 71 71 72 73 76
100 87 90 99 98 97 98 96 91 86 85 82 81 79 80 79 79 81 79 75 75 77 83 94 94 86 83 81 81 81 78 74 67 60 57 54 58 63 69 71 71 69 72
85 80 71 78 86 93 95 95 92 88 84 83 79 77 75 72 70 69 68 70 73 74 74 83 89 87 84 82 82 79 78 73 63 53 55 56 64 64 64 66 68 67 66
79 74 67 68 69 70 77 86 88 84 80 78 74 70 65 60 56 55 54 56 60 66 67 72 81 78 80 78 76 77 78 68 58 50 48 55 58 58 56 62 67 69 66
88 74 72 70 69 71 70 71 74 75 70 67 62 61 55 46 43 41 46 51 53 59 63 71 76 75 72 70 70 72 70 59 55 47 47 52 54 56 56 62 66 70 67
134 105 91 91 83 76 75 64 61 62 60 60 58 55 53 48 43 42 41 46 49 56 59 65 70 66 65 64 66 68 63 55 51 41 45 54 58 55 55 62 64 65 62
164 135 120 115 100 87 73 69 62 62 59 58 57 54 52 48 43 40 38 36 39 47 48 48 51 52 58 62 64 67 67 61 49 38 42 52 57 57 54 58 62 61 58
149 155 137 121 109 104 98 84 78 72 65 58 54 56 56 50 40 37 38 36 43 47 49 48 51 49 53 59 67 67 66 62 52 40 36 44 52 55 57 57 57 55 52
162 168 153 137 131 121 102 87 81 78 79 74 65 58 66 68 50 40 39 42 44 50 53 52 53 48 44 51 61 64 55 52 50 45 33 37 46 52 55 57 57 54 53
174 171 155 146 136 124 115 102 91 87 87 84 70 60 69 81 79 65 52 46 40 46 55 59 58 54 46 50 56 56 51 49 47 46 38 34 39 47 52 53 53 53 53
175 171 160 152 129 126 125 113 97 94 92 79 70 64 70 83 87 82 68 51 37 47 59 63 56 56 50 44 43 44 52 51 47 45 45 40 34 38 47 50 51 54 52
169 169 170 164 143 140 129 114 96 95 93 82 80 75 76 85 89 87 79 56 48 56 59 61 52 53 45 39 32 27 38 46 42 43 48 45 41 35 38 43 45 51 52
173 169 163 157 151 149 136 113 94 90 83 83 86 80 82 88 90 92 87 65 62 60 52 61 53 59 54 41 42 34 29 32 30 45 45 41 39 34 30 32 35 41 45
168 162 156 148 146 136 122 104 85 78 69 69 76 85 92 89 93 93 86 73 72 70 57 58 65 55 59 49 57 43 25 26 36 41 37 34 32 36 35 32 26 24 32
164 160 159 154 152 139 130 130 121 115 95 70 65 83 93 97 100 97 87 81 75 78 74 73 74 65 46 26 59 32 18 30 38 33 31 35 28 27 35 33 28 24 19
178 175 168 169 164 161 159 146 136 126 115 106 65 69 89 104 109 106 106 98 91 87 74 63 67 77 43 29 76 71 16 3 11 21 22 32 17 22 28 27 27 24 22
179 180 178 176 170 166 149 116 94 77 67 66 61 53 55 105 108 108 117 111 109 104 102 86 83 99 99 29 46 116 123 229 328 350 10 18 13 17 14 18 19 10 11
193 180 172 169 167 164 152 148 144 147 160 192 181 175 131 109 114 123 124 118 115 109 111 100 93 97 112 80 31 43 98 156 139 340 344 356 3 11 0 7 4 359 360
185 173 170 159 160 158 158 162 157 155 165 154 136 146 147 109 112 130 133 128 132 129 135 112 95 93 103 121 115 92 68 56 85 141 298 330 348 343 345 345 348 347 348
168 167 165 163 167 164 164 168 169 168 165 154 158 170 179 168 175 157 144 142 149 143 151 150 136 123 110 106 106 109 129 132 151 150 197 275 308 311 330 334 340 339 343
Height
1512 1512 1512 1512 1512 1511 1511 1511 1511 1511 1511 1511 1511 1511 1512 1513 1513 1514 1514 1515 1515 1516 1517 1517 1518 1518 1519 1519 1520 1520 1520 1521 1521 1521 1522 1522 1522 1523 1523 1523 1524 1524 1524
1512 1512 1512 1512 1512 1512 1512 1512 1512 1512 1512 1512 1513 1513 1513 1514 1514 1515 1515 1516 1516 1517 1517 1518 1519 1519 1520 1520 1521 1521 1521 1522 1522 1522 1523 1523 1523 1523 1524 1524 1524 1524 1525
1513 1513 1513 1513 1514 1514 1514 1514 1514 1514 1514 1514 1514 1514 1514 1515 1515 1516 1516 1517 1517 1518 1518 1519 1520 1520 1521 1521 1521 1522 1522 1522 1523 1523 1523 1523 1524 1524 1524 1524 1525 1525 1525
1514 1514 1514 1514 1514 1515 1515 1515 1515 1515 1515 1515 1515 1516 1516 1516 1517 1517 1517 1518 1519 1519 1520 1520 1521 1521 1521 1522 1522 1522 1523 1523 1523 1524 1524 1524 1524 1525 1525 1525 1525 1525 1525
1514 1515 1515 1516 1516 1516 1516 1516 1516 1517 1517 1517 1517 1517 1517 1518 1518 1519 1519 1520 1520 1520 1521 1521 1522 1522 1522 1523 1523 1523 1524 1524 1524 1524 1524 1525 1525 1525 1525 1525 1525 1525 1525
1515 1516 1516 1517 1517 1517 1517 1518 1518 1518 1518 1518 1518 1519 1519 1519 1520 1520 1520 1521 1521 1521 1522 1522 1523 1523 1523 1524 1524 1524 1524 1525 1525 1525 1525 1525 1525 1525 1525 1525 1525 1525 1525
1517 1517 1517 1518 1518 1518 1519 1519 1519 1520 1520 1520 1520 1520 1521 1521 1521 1521 1522 1522 1522 1522 1523 1523 1523 1524 1524 1525 1525 1525 1525 1525 1526 1526 1526 1526 1526 1526 1526 1526 1525 1525 1525
1518 1518 1519 1519 1520 1520 1520 1521 1521 1521 1521 1522 1522 1522 1522 1522 1523 1523 1523 1523 1523 1523 1523 1523 1524 1525 1525 1525 1525 1526 1526 1526 1526 1527 1526 1526 1526 1526 1526 1526 1526 1526 1526
1519 1520 1520 1520 1521 1522 1522 1522 1523 1523 1523 1523 1523 1523 1524 1524 1524 1524 1524 1524 1524 1524 1524 1524 1524 1525 1526 1526 1526 1526 1527 1527 1527 1527 1527 1527 1527 1527 1526 1526 1526 1526 1526
1520 1521 1521 1522 1522 1523 1523 1524 1524 1524 1525 1525 1525 1525 1525 1525 1525 1525 1525 1525 1525 1525 1525 1525 1524 1525 1526 1527 1527 1527 1528 1528 1528 1528 1528 1528 1527 1527 1526 1525 1525 1525 1525
1521 1521 1522 1523 1524 1524 1524 1525 1525 1526 1526 1526 1526 1526 1526 1526 1526 1527 1527 1526 1526 1525 1526 1526 1526 1526 1527 1527 1528 1528 1529 1529 1529 1529 1528 1528 1527 1527 1525 1524 1524 1524 1525
1521 1522 1523 1524 1525 1525 1526 1526 1526 1527 1527 1527 1528 1528 1528 1528 1528 1528 1528 1527 1527 1526 1527 1527 1527 1528 1528 1529 1529 1529 1529 1529 1530 1529 1529 1529 1528 1527 1525 1524 1524 1524 1525
1522 1523 1524 1525 1526 1526 1527 1527 1527 1528 1528 1529 1529 1529 1529 1529 1529 1529 1529 1529 1528 1528 1528 1527 1528 1529 1529 1530 1530 1530 1530 1530 1530 1530 1530 1530 1529 1528 1527 1525 1525 1525 1526
1522 1524 1525 1526 1527 1527 1528 1528 1529 1529 1530 1530 1530 1530 1530 1530 1530 1530 1530 1530 1530 1530 1529 1529 1530 1530 1530 1531 1531 1531 1531 1531 1531 1531 1531 1531 1530 1529 1528 1527 1527 1527 1527
1523 1524 1525 1526 1527 1528 1529 1529 1530 1530 1531 1531 1531 1531 1532 1532 1531 1531 1531 1531 1531 1531 1531 1531 1531 1531 1531 1531 1532 1532 1532 1532 1532 1532 1532 1531 1531 1531 1530 1529 1529 1528 1528
1523 1524 1525 1526 1527 1528 1529 1530 1531 1531 1532 1532 1532 1532 1533 1533 1532 1532 1532 1532 1532 1532 1532 1532 1532 1532 1532 1532 1532 1532 1532 1532 1532 1532 1532 1532 1532 1532 1531 1530 1530 1529 1529
1523 1524 1525 1527 1528 1529 1529 1530 1531 1532 1532 1533 1533 1533 1533 1533 1533 1533 1533 1533 1533 1533 1533 1533 1533 1533 1533 1533 1533 1533 1533 1533 1533 1533 1533 1533 1533 1532 1532 1531 1531 1530 1529
1523 1524 1525 1526 1527 1528 1530 1531 1531 1532 1532 1533 1533 1534 1534 1534 1534 1534 1534 1534 1534 1534 1533 1533 1533 1533 1533 1533 1533 1533 1533 1533 1533 1534 1534 1534 1533 1533 1532 1532 1531 1531 1530
1522 1523 1524 1526 1527 1528 1530 1531 1531 1532 1532 1533 1534 1534 1534 1534 1534 1534 1534 1534 1534 1534 1533 1533 1533 1533 1533 1533 1533 1533 1533 1534 1534 1534 1534 1534 1534 1533 1532 1532 1531 1531 1530
1521 1522 1524 1525 1527 1528 1529 1530 1531 1532 1532 1533 1533 1534 1534 1534 1534 1534 1534 1533 1533 1533 1533 1533 1533 1533 1533 1533 1533 1533 1534 1534 1534 1534 1534 1534 1534 1533 1533 1532 1532 1531 1530
1519 1521 1522 1524 1525 1527 1528 1529 1530 1530 1531 1532 1533 1533 1533 1533 1533 1533 1533 1533 1533 1533 1533 1533 1533 1533 1533 1533 1533 1533 1534 1534 1534 1534 1534 1534 1534 1533 1533 1532 1532 1531 1530
1517 1519 1521 1522 1524 1526 1527 1528 1529 1530 1531 1532 1532 1532 1533 1533 1533 1533 1533 1533 1533 1533 1533 1533 1533 1533 1532 1533 1533 1533 1533 1535 1534 1534 1534 1534 1533 1533 1533 1532 1532 1531 1530
1515 1517 1519 1521 1523 1525 1526 1528 1529 1529 1530 1531 1531 1532 1532 1532 1532 1532 1532 1532 1532 1532 1532 1533 1533 1532 1532 1533 1533 1533 1533 1533 1533 1533 1533 1533 1533 1533 1532 1532 1531 1531 1530
1513 1515 1517 1519 1521 1523 1525 1526 1527 1528 1529 1530 1530 1531 1532 1532 1532 1532 1532 1532 1532 1532 1532 1532 1532 1532 1532 1532 1532 1532 1533 1533 1533 1532 1533 1533 1532 1532 1532 1531 1531 1530 1530
1512 1514 1516 1518 1520 1522 1523 1525 1526 1527 1528 1529 1529 1530 1531 1531 1531 1531 1531 1531 1531 1531 1531 1531 1531 1531 1531 1531 1531 1531 1532 1532 1532 1532 1532 1532 1532 1531 1531 1531 1530 1530 1529
1510 1512 1514 1516 1518 1520 1522 1523 1524 1525 1526 1527 1528 1529 1529 1530 1530 1530 1530 1531 1531 1531 1530 1530 1530 1530 1530 1530 1530 1531 1531 1531 1531 1531 1530 1530 1530 1530 1530 1530 1529 1529 1529